This is the latest recevied weather packets stored in our database for station/object ke5jzm-1. If no packets are shown the sender has not sent any weather packets the latest 10 day(s).
| Time | Temp. | Humidity | Pressure | Rain* | Wind** | Luminosity | Snow |
|---|---|---|---|---|---|---|---|
| 1778347755 | 24.44° C | 63% | 1012.8 hPa | 1.52 mm | - | 27 W/m² | - |
| 1778347695 | 24.44° C | 63% | 1012.9 hPa | 1.52 mm | - | 26 W/m² | - |
| 1778347635 | 24.44° C | 63% | 1013 hPa | 1.52 mm | - | 26 W/m² | - |
| 1778347575 | 24.44° C | 63% | 1013 hPa | 1.52 mm | - | 26 W/m² | - |
| 1778347515 | 24.44° C | 63% | 1013 hPa | 1.52 mm | - | 25 W/m² | - |
| 1778347455 | 24.44° C | 63% | 1013.1 hPa | 1.27 mm | - | 25 W/m² | - |
| 1778347395 | 24.44° C | 63% | 1013.1 hPa | 1.27 mm | - | 25 W/m² | - |
| 1778347339 | 24.44° C | 63% | 1013.2 hPa | 1.27 mm | - | 26 W/m² | - |
| 1778347274 | 24.44° C | 63% | 1013.2 hPa | 1.27 mm | - | 27 W/m² | - |
| 1778347215 | 24.44° C | 63% | 1013.2 hPa | 1.52 mm | - | 26 W/m² | - |
| 1778347155 | 24.44° C | 63% | 1013.2 hPa | 1.52 mm | - | 26 W/m² | - |
| 1778347095 | 24.44° C | 63% | 1013.3 hPa | 1.52 mm | - | 25 W/m² | - |
| 1778347035 | 24.44° C | 63% | 1013.3 hPa | 1.52 mm | - | 24 W/m² | - |
| 1778346974 | 24.44° C | 63% | 1013.2 hPa | 1.52 mm | - | 24 W/m² | - |
| 1778346915 | 24.44° C | 63% | 1013.2 hPa | 1.78 mm | - | 24 W/m² | - |
| 1778346856 | 24.44° C | 63% | 1013.1 hPa | 2.03 mm | - | 24 W/m² | - |
| 1778346795 | 24.44° C | 63% | 1012.9 hPa | 2.03 mm | - | 22 W/m² | - |
| 1778346741 | 24.44° C | 63% | 1012.7 hPa | 2.03 mm | - | 20 W/m² | - |
| 1778346675 | 24.44° C | 63% | 1012.4 hPa | 2.03 mm | - | 20 W/m² | - |
| 1778346616 | 24.44° C | 63% | 1012.1 hPa | 2.03 mm | - | 19 W/m² | - |
| 1778346555 | 24.44° C | 63% | 1011.9 hPa | 2.03 mm | - | 18 W/m² | - |
| 1778346496 | 24.44° C | 63% | 1011.8 hPa | 2.29 mm | - | 19 W/m² | - |
| 1778346435 | 24.44° C | 63% | 1011.9 hPa | 2.54 mm | - | 19 W/m² | - |
| 1778346375 | 24.44° C | 63% | 1012.1 hPa | 2.79 mm | - | 20 W/m² | - |
| 1778346315 | 24.44° C | 63% | 1012.3 hPa | 2.79 mm | - | 20 W/m² | - |
* Rain latest hour (hover to see other rain measurements)
** Current wind speed in m/s (hover to see current wind gust speed)